GW2087 Weather Reports


time (UTC)temp
C
wind
direction
speed
KPH
gust
KPH
rain 1hr
cm
rain 24hr
cm
rain mn
cm
humidity
%
barometer
mb
20260504014032 7 221 1.6 3.2 0.00 0.00 0.00 76 1013.6
20260504013529 8 220 1.6 1.6 0.00 0.00 0.00 71 1013.5
20260504013026 8 221 3.2 3.2 0.00 0.00 0.00 71 1013.5
20260504012524 8 226 1.6 1.6 0.00 0.00 0.00 69 1013.4
20260504012022 8 223 1.6 1.6 0.00 0.00 0.00 68 1013.4
20260504011518 8 227 3.2 3.2 0.00 0.00 0.00 66 1013.6
20260504011014 10 227 1.6 1.6 0.00 0.00 0.00 64 1013.4
20260504010510 10 224 1.6 1.6 0.00 0.00 0.00 59 1013.6
20260504010006 10 226 1.6 3.2 0.00 0.00 0.00 56 1013.3
20260504005503 11 235 0.0 0.0 0.00 0.00 0.00 57 1013.4
20260504005000 11 237 3.2 3.2 0.00 0.00 0.00 53 1013.4
20260504004458 11 216 3.2 3.2 0.00 0.00 0.00 47 1013.1
20260504003954 11 220 3.2 3.2 0.00 0.00 0.00 47 1013.1
20260504003450 12 216 3.2 3.2 0.00 0.00 0.00 46 1013.0
20260504002948 11 209 4.8 4.8 0.00 0.00 0.00 45 1013.4
20260504002445 11 224 4.8 4.8 0.00 0.00 0.00 44 1013.3
20260504001942 12 208 3.2 3.2 0.00 0.00 0.00 44 1013.4
20260504001439 11 218 1.6 3.2 0.00 0.00 0.00 48 1013.3
20260504000936 12 185 3.2 3.2 0.00 0.00 0.00 45 1013.3
20260504000433 12 218 3.2 3.2 0.00 0.00 0.00 43 1013.4
20260503235930 12 214 6.4 9.7 0.00 0.00 0.00 46 1013.0
20260503235428 12 238 3.2 4.8 0.00 0.00 0.00 44 1013.4
20260503234925 12 206 3.2 3.2 0.00 0.00 0.00 44 1013.1
20260503234422 12 157 4.8 4.8 0.00 0.00 0.00 43 1013.1
20260503233920 12 222 9.7 11.3 0.00 0.00 0.00 44 1013.1
20260503233417 12 220 0.0 1.6 0.00 0.00 0.00 44 1013.3
20260503232913 12 223 4.8 4.8 0.00 0.00 0.00 42 1013.1
20260503232410 13 242 3.2 3.2 0.00 0.00 0.00 43 1013.3
20260503231908 13 202 4.8 4.8 0.00 0.00 0.00 40 1013.2
20260503231405 13 205 9.7 14.5 0.00 0.00 0.00 40 1013.1
20260503230901 13 192 12.9 14.5 0.00 0.00 0.00 39 1013.2
20260503230358 13 232 3.2 3.2 0.00 0.00 0.00 41 1013.2
20260503225856 13 217 8.0 8.0 0.00 0.00 0.00 40 1013.3
20260503225351 13 183 4.8 4.8 0.00 0.00 0.00 39 1013.2
20260503224848 13 233 6.4 8.0 0.00 0.00 0.00 39 1013.1
20260503224345 13 248 1.6 3.2 0.00 0.00 0.00 39 1013.1
20260503223843 13 212 6.4 8.0 0.00 0.00 0.00 40 1013.4
20260503223340 13 216 3.2 3.2 0.00 0.00 0.00 41 1013.4
20260503222836 13 239 1.6 3.2 0.00 0.00 0.00 41 1013.4
20260503222335 13 330 3.2 8.0 0.00 0.00 0.00 39 1013.2
20260503221832 13 253 0.0 1.6 0.00 0.00 0.00 39 1013.4
20260503221331 13 248 4.8 9.7 0.00 0.00 0.00 38 1013.3
20260503220826 14 219 8.0 11.3 0.00 0.00 0.00 39 1013.4
20260503220323 14 150 1.6 1.6 0.00 0.00 0.00 37 1013.1
20260503215820 14 205 9.7 14.5 0.00 0.00 0.00 36 1013.2
20260503215318 14 206 9.7 12.9 0.00 0.00 0.00 37 1013.2
20260503214815 15 230 4.8 4.8 0.00 0.00 0.00 38 1013.1
20260503214312 14 190 3.2 4.8 0.00 0.00 0.00 38 1013.2
20260503213810 14 219 8.0 9.7 0.00 0.00 0.00 37 1013.1
20260503213307 13 209 9.7 17.7 0.00 0.00 0.00 37 1013.1
20260503212804 14 297 11.3 17.7 0.00 0.00 0.00 38 1013.1
20260503212302 15 225 12.9 14.5 0.00 0.00 0.00 36 1013.3
20260503211759 15 289 3.2 3.2 0.00 0.00 0.00 35 1013.2
20260503211255 15 235 12.9 17.7 0.00 0.00 0.00 38 1013.3
20260503210755 14 326 8.0 11.3 0.00 0.00 0.00 37 1013.1
20260503210253 15 241 3.2 3.2 0.00 0.00 0.00 37 1013.3
20260503205748 15 274 6.4 11.3 0.00 0.00 0.00 39 1013.3
20260503205245 15 309 8.0 9.7 0.00 0.00 0.00 34 1013.2
20260503204741 16 263 16.1 20.9 0.00 0.00 0.00 36 1013.2
20260503204239 14 211 6.4 11.3 0.00 0.00 0.00 39 1013.5
20260503203736 13 225 8.0 9.7 0.00 0.00 0.00 39 1013.4
20260503203234 14 187 11.3 20.9 0.00 0.00 0.00 39 1013.4
20260503202731 15 227 1.6 3.2 0.00 0.00 0.00 38 1013.5
20260503202229 15 194 9.7 12.9 0.00 0.00 0.00 38 1013.7
20260503201726 15 298 8.0 12.9 0.00 0.00 0.00 37 1013.6
20260503201224 14 239 8.0 9.7 0.00 0.00 0.00 38 1013.6
20260503200720 13 193 8.0 11.3 0.00 0.00 0.00 40 1013.7
20260503200216 13 199 8.0 9.7 0.00 0.00 0.00 39 1014.0
20260503195713 14 330 8.0 12.9 0.00 0.00 0.00 39 1014.0
20260503195210 14 227 11.3 14.5 0.00 0.00 0.00 39 1014.0
20260503194707 14 326 8.0 12.9 0.00 0.00 0.00 40 1013.9
20260503194203 13 258 4.8 4.8 0.00 0.00 0.00 40 1014.0
20260503193659 15 306 11.3 12.9 0.00 0.00 0.00 38 1014.1
20260503193155 14 327 4.8 4.8 0.00 0.00 0.00 42 1014.3
20260503192651 13 292 4.8 9.7 0.00 0.00 0.00 41 1014.3
20260503192147 13 203 12.9 17.7 0.00 0.00 0.00 40 1014.5
20260503191643 13 223 6.4 8.0 0.00 0.00 0.00 43 1014.5
20260503191141 13 241 6.4 8.0 0.00 0.00 0.00 42 1014.6
20260503190638 13 239 1.6 3.2 0.00 0.00 0.00 40 1014.6
20260503190134 14 262 11.3 14.5 0.00 0.00 0.00 41 1014.7
20260503185631 15 197 9.7 12.9 0.00 0.00 0.00 37 1014.7
20260503185126 14 327 12.9 14.5 0.00 0.00 0.00 39 1014.8
20260503184621 15 243 12.9 14.5 0.00 0.00 0.00 37 1014.7
20260503184118 15 127 3.2 4.8 0.00 0.00 0.00 36 1014.8
20260503183615 13 311 14.5 20.9 0.00 0.00 0.00 40 1014.9
20260503183112 13 272 8.0 12.9 0.00 0.00 0.00 40 1015.0
20260503182610 13 348 6.4 9.7 0.00 0.00 0.00 40 1015.0
20260503182108 13 345 9.7 12.9 0.00 0.00 0.00 44 1015.0
20260503181605 14 220 6.4 9.7 0.00 0.00 0.00 42 1015.0
20260503181102 14 285 6.4 8.0 0.00 0.00 0.00 39 1015.1
20260503180559 14 268 4.8 4.8 0.00 0.00 0.00 44 1015.4
20260503180056 13 1 6.4 12.9 0.00 0.00 0.00 41 1015.3
20260503175553 14 211 11.3 12.9 0.00 0.00 0.00 40 1015.4
20260503175050 13 328 8.0 12.9 0.00 0.00 0.00 40 1015.4
20260503174547 14 286 16.1 17.7 0.00 0.00 0.00 40 1015.6
20260503174044 12 243 4.8 8.0 0.00 0.00 0.00 40 1015.4
20260503173539 13 214 19.3 22.5 0.00 0.00 0.00 39 1015.9
20260503173035 13 209 14.5 20.9 0.00 0.00 0.00 42 1015.9
20260503172533 13 206 6.4 8.0 0.00 0.00 0.00 43 1015.7
20260503172030 13 237 4.8 4.8 0.00 0.00 0.00 39 1015.7
20260503171526 12 198 11.3 14.5 0.00 0.00 0.00 40 1015.8
20260503171024 13 304 4.8 8.0 0.00 0.00 0.00 38 1015.8
20260503170520 13 203 12.9 14.5 0.00 0.00 0.00 39 1015.8
20260503150912 10 208 6.4 8.0 0.00 0.00 0.00 47 1016.5
20260503150409 11 321 3.2 3.2 0.00 0.00 0.00 43 1016.4
20260503131302 6 264 1.6 3.2 0.00 0.00 0.00 67 1017.1
20260503130800 6 227 4.8 8.0 0.00 0.00 0.00 66 1017.2
20260503130257 6 210 3.2 3.2 0.00 0.00 0.00 66 1017.1
20260503110650 -2 288 0.0 0.0 0.00 0.00 0.00 99 1016.6
20260503110148 -2 287 0.0 0.0 0.00 0.00 0.00 99 1016.6
20260503100114 -3 287 0.0 0.0 0.00 0.00 0.00 99 1016.1
20260503081504 -2 288 0.0 0.0 0.00 0.00 0.00 98 1016.0
20260503081001 -2 288 0.0 0.0 0.00 0.00 0.00 98 1015.9
20260503080457 -2 288 0.0 0.0 0.00 0.00 0.00 98 1016.1
20260503072933 -1 288 0.0 0.0 0.00 0.00 0.00 98 1015.7
20260503072431 -1 288 0.0 0.0 0.00 0.00 0.00 98 1016.1
20260503071928 -1 288 0.0 0.0 0.00 0.00 0.00 97 1015.8
20260503071425 -1 288 0.0 0.0 0.00 0.00 0.00 97 1015.8
20260503070921 -1 288 1.6 1.6 0.00 0.00 0.00 97 1015.8
20260503070418 -1 288 0.0 0.0 0.00 0.00 0.00 97 1015.7
20260503054832 1 289 0.0 0.0 0.00 0.00 0.00 90 1015.8
20260503054327 1 289 0.0 0.0 0.00 0.00 0.00 91 1015.8
20260503053826 1 289 0.0 0.0 0.00 0.00 0.00 91 1016.0
20260503053324 1 289 0.0 0.0 0.00 0.00 0.00 91 1016.2
20260503052820 1 289 0.0 0.0 0.00 0.00 0.00 88 1016.1
20260503052317 1 289 0.0 0.0 0.00 0.00 0.00 92 1015.9
20260503051813 1 289 0.0 0.0 0.00 0.00 0.00 93 1016.1
20260503051309 1 289 0.0 0.0 0.00 0.00 0.00 94 1016.1
20260503050806 1 289 0.0 0.0 0.00 0.00 0.00 94 1016.2
20260503050302 1 289 0.0 0.0 0.00 0.00 0.00 94 1016.3
20260503045800 1 289 0.0 0.0 0.00 0.00 0.00 94 1016.5
20260503045258 1 289 0.0 0.0 0.00 0.00 0.00 94 1016.3
20260503044754 1 289 0.0 0.0 0.00 0.00 0.00 94 1016.2
20260503044251 1 289 0.0 0.0 0.00 0.00 0.00 94 1016.4
20260503043748 1 289 0.0 0.0 0.00 0.00 0.00 93 1016.2
20260503043245 1 289 0.0 0.0 0.00 0.00 0.00 93 1016.0
20260503042741 1 289 0.0 0.0 0.00 0.00 0.00 93 1016.2
20260503042238 1 289 0.0 0.0 0.00 0.00 0.00 93 1016.3
20260503041734 1 289 0.0 0.0 0.00 0.00 0.00 93 1016.2
20260503041232 1 289 0.0 0.0 0.00 0.00 0.00 93 1016.6
20260503040729 1 289 0.0 0.0 0.00 0.00 0.00 93 1016.2
20260503040221 1 289 0.0 0.0 0.00 0.00 0.00 93 1016.3
20260503035717 1 289 0.0 0.0 0.00 0.00 0.00 92 1016.3
20260503035215 1 289 0.0 0.0 0.00 0.00 0.00 92 1016.6
20260503034712 1 289 0.0 0.0 0.00 0.00 0.00 92 1016.2
20260503034209 1 289 0.0 1.6 0.00 0.00 0.00 93 1016.3
20260503033706 1 289 0.0 1.6 0.00 0.00 0.00 92 1016.0
20260503033204 1 289 0.0 0.0 0.00 0.00 0.00 92 1016.3
20260503032702 1 289 0.0 1.6 0.00 0.00 0.00 92 1016.5
20260503032200 1 289 1.6 1.6 0.00 0.00 0.00 90 1016.4
20260503031657 1 289 0.0 0.0 0.00 0.00 0.00 89 1016.4
20260503031155 1 289 0.0 1.6 0.00 0.00 0.00 89 1016.3
20260503030651 1 289 0.0 0.0 0.00 0.00 0.00 89 1016.7
20260503030148 1 289 0.0 0.0 0.00 0.00 0.00 89 1016.3
20260503025644 1 289 0.0 0.0 0.00 0.00 0.00 88 1016.5
20260503025143 2 289 0.0 0.0 0.00 0.00 0.00 88 1016.6
20260503024638 2 289 0.0 1.6 0.00 0.00 0.00 89 1016.5
20260503024136 2 289 0.0 0.0 0.00 0.00 0.00 85 1016.6
20260503023633 2 289 0.0 0.0 0.00 0.00 0.00 83 1016.7
20260503023130 2 289 1.6 1.6 0.00 0.00 0.00 83 1016.8
20260503022626 2 290 0.0 0.0 0.00 0.00 0.00 84 1016.9
20260503022120 2 291 0.0 0.0 0.00 0.00 0.00 85 1016.6
20260503021618 2 289 0.0 0.0 0.00 0.00 0.00 84 1016.5
20260503021114 2 289 0.0 0.0 0.00 0.00 0.00 84 1016.6
20260503020611 2 289 0.0 0.0 0.00 0.00 0.00 83 1016.7
20260503020109 2 289 0.0 0.0 0.00 0.00 0.00 84 1016.5
20260503015605 2 289 0.0 0.0 0.00 0.00 0.00 85 1016.6
20260503015102 3 289 0.0 0.0 0.00 0.00 0.00 84 1016.5
20260503014558 3 289 0.0 0.0 0.00 0.00 0.00 78 1016.5